{"data":{"norad_id":62220,"epoch":"2026-05-25T02:56:01.477248Z","epoch_age_seconds":61701,"freshness":"FRESH","line1":"1 62220U 24231C   26145.12223932  .00153171  00000+0  12435-2 0  9990","line2":"2 62220  53.1564  84.6621 0000928  75.2710 284.8411 15.69757094 85415","mean_motion":15.69757094,"eccentricity":9.28e-5,"inclination_deg":53.1564,"raan_deg":84.6621,"arg_perigee_deg":75.271,"mean_anomaly_deg":284.8411,"bstar":0.0012435,"rev_number":8541,"period_min":91.733938040735,"perigee_km":358.96672753747,"apogee_km":360.21725003779,"semimajor_km":6737.7289887876,"source":"CELESTRAK","updated_at":"2026-05-25T13:38:19.613364Z"}}